CDT,Max TemperatureF,Mean TemperatureF,Min TemperatureF,Max Dew PointF,MeanDew PointF,Min DewpointF,Max Humidity, Mean Humidity, Min Humidity, Max Sea Level PressureIn, Mean Sea Level PressureIn, Min Sea Level PressureIn, Max VisibilityMiles, Mean VisibilityMiles, Min VisibilityMiles, Max Wind SpeedMPH, Mean Wind SpeedMPH, Max Gust SpeedMPH,PrecipitationIn, CloudCover, Events, WindDirDegrees
2012-10-1,80,69,60,58,52,45,78,60,31,29.80,29.73,29.68,10,10,10,13,5,21,0.00,0,,345
2012-10-2,78,66,54,56,52,49,90,69,39,29.91,29.86,29.80,10,10,10,10,2,,0.00,0,,303
2012-10-3,81,68,57,60,57,55,96,74,42,30.08,29.99,29.91,10,10,8,5,1,,0.00,1,,159
2012-10-4,84,69,54,60,57,52,97,70,37,30.20,30.13,30.08,10,9,4,7,1,,0.00,0,,205
2012-10-5,75,63,51,65,57,43,94,82,66,30.20,30.07,29.98,10,8,2,14,5,21,0.08,8,Rain-Thunderstorm,349
2012-10-6,50,48,46,45,40,34,90,74,58,30.27,30.23,30.19,10,9,3,8,4,,0.16,7,Rain-Thunderstorm,14
2012-10-7,61,50,39,46,38,33,93,64,38,30.30,30.24,30.18,10,10,9,12,4,,0.00,4,,3
2012-10-8,63,53,43,44,42,38,97,73,40,30.26,30.18,30.10,10,10,8,8,3,,0.00,4,,201
2012-10-9,69,56,43,57,49,41,93,77,52,30.11,30.04,29.92,10,10,7,8,1,16,0.00,4,,187
2012-10-10,72,60,50,55,46,34,100,69,27,30.27,30.16,30.05,10,7,1,9,1,,0.01,3,,35
2012-10-11,69,61,54,56,49,42,90,69,51,30.24,30.18,30.11,10,10,4,6,1,,0.09,6,Rain-Thunderstorm,84
2012-10-12,70,63,57,64,61,55,100,92,73,30.27,30.19,30.14,10,5,1,7,1,,0.32,5,Rain-Thunderstorm,36
2012-10-13,80,69,60,67,62,60,100,91,65,30.17,30.08,29.85,10,4,1,8,4,16,0.00,7,Rain-Thunderstorm,98
2012-10-14,78,66,54,66,60,52,96,79,46,30.04,29.90,29.76,10,8,2,16,7,30,1.00,3,Rain-Thunderstorm,247
2012-10-15,81,64,48,58,52,47,96,74,35,30.09,30.00,29.92,10,9,6,7,0,,0.00,0,,220
2012-10-16,79,64,50,56,51,45,93,68,33,29.94,29.83,29.72,10,10,7,8,2,21,0.00,0,,185
2012-10-17,70,64,54,65,59,52,93,84,65,29.73,29.61,29.51,10,9,2,10,3,,0.01,5,Thunderstorm,254
2012-10-18,71,58,46,49,35,23,96,51,17,29.86,29.80,29.75,10,10,9,17,4,33,0.00,1,,270
2012-10-19,69,57,46,43,33,24,86,40,23,29.88,29.80,29.75,10,9,6,20,9,29,0.00,3,,279
2012-10-20,79,58,39,50,44,37,96,64,31,29.94,29.87,29.79,10,10,10,6,1,,0.00,0,,98
2012-10-21,82,68,55,67,60,50,84,72,60,29.94,29.90,29.85,10,10,10,8,1,,0.00,6,,169
2012-10-22,81,75,69,65,64,61,84,70,56,30.01,29.97,29.94,10,10,10,13,4,25,0.00,2,,190
2012-10-23,84,74,64,63,59,57,84,65,43,29.99,29.95,29.90,10,10,10,8,2,,0.00,3,,177
2012-10-24,84,73,62,65,62,59,93,74,49,30.01,29.95,29.88,10,10,9,7,2,,0.00,2,,180
2012-10-25,82,68,53,65,60,43,93,76,54,30.12,29.91,29.84,10,10,9,17,5,26,0.00,5,,283
2012-10-26,59,52,46,46,38,31,87,62,39,30.29,30.19,30.12,10,9,2,13,8,17,0.03,5,Rain,360
2012-10-27,61,48,37,33,29,23,76,54,24,30.31,30.23,30.14,10,10,10,10,5,17,0.00,0,,355
2012-10-28,61,46,33,35,31,27,89,63,28,30.28,30.23,30.17,10,10,10,9,2,,0.00,0,,322
2012-10-29,61,45,30,37,32,29,92,69,32,30.34,30.23,30.12,10,10,9,6,1,,0.00,0,,284
2012-10-30,64,48,32,47,38,31,96,73,37,30.12,30.02,29.93,10,9,5,5,0,,0.00,1,,255
2012-10-31,71,56,41,47,41,37,93,70,31,30.04,29.97,29.94,10,9,6,5,0,,0.00,0,,244